Location: Unspecified
(0.0000°N, 0.0000°E)
Time: 03:41:29
(UTC+00:00)

SKYMED 4 - Visible Passes

Search period start: 28 June 2017 00:00
Search period end: 08 July 2017 00:00
Orbit: 621 x 623 km, 97.9° (Epoch: 26 June)

Date Brightness Start Highest point End Pass type
(mag) Time Alt. Az. Time Alt. Az. Time Alt. Az.
28 Jun 6.1 05:24:47 10° SSE 05:29:00 51° ENE 05:33:12 10° N visible
01 Jul 8.4 04:45:01 10° ESE 04:47:04 13° ENE 04:49:05 10° NE visible
01 Jul 8.2 18:28:50 10° NNW 18:31:52 19° WNW 18:34:56 10° WSW visible
02 Jul 7.7 05:01:35 10° SE 05:05:02 23° ENE 05:08:29 10° NNE visible
02 Jul 8.9 18:49:13 10° WNW 18:49:51 10° WNW 18:50:30 10° W visible
03 Jul 6.5 05:18:55 10° SSE 05:23:01 42° ENE 05:27:06 10° N visible
04 Jul 5.3 05:36:40 10° SSE 05:41:01 79° ENE 05:45:19 10° N visible
06 Jul 8.6 04:40:09 10° E 04:41:05 11° ENE 04:42:02 10° ENE visible
07 Jul 8.0 04:55:58 10° SE 04:59:04 19° ENE 05:02:10 10° NNE visible
07 Jul 8.5 18:41:59 10° NW 18:43:53 13° WNW 18:45:50 10° WSW visible
